GW4725 Weather Reports


Display with metric or nautical units.
time (UTC)temp
F
wind
direction
speed
MPH
gust
MPH
rain 1hr
in
rain 24hr
in
rain mn
in
humidity
%
barometer
mb
20260503230104 61 271 4.0 9.0 0.00 0.00 0.00 29 1015.9
20260503225601 61 260 1.0 2.0 0.00 0.00 0.00 31 1015.9
20260503225056 61 263 0.0 2.0 0.00 0.00 0.00 30 1015.8
20260503224554 61 321 0.0 3.0 0.00 0.00 0.00 29 1015.9
20260503224052 62 254 0.0 6.0 0.00 0.00 0.00 31 1015.6
20260503223550 62 327 0.0 3.0 0.00 0.00 0.00 28 1015.8
20260503223045 63 265 1.0 6.0 0.00 0.00 0.00 29 1015.7
20260503222543 63 232 1.0 3.0 0.00 0.00 0.00 27 1015.8
20260503222041 64 284 0.0 4.0 0.00 0.00 0.00 28 1015.7
20260503221539 63 254 2.0 3.0 0.00 0.00 0.00 27 1015.9
20260503221036 64 283 1.0 3.0 0.00 0.00 0.00 27 1015.9
20260503220532 64 290 2.0 6.0 0.00 0.00 0.00 28 1016.0
20260503220029 64 208 0.0 3.0 0.00 0.00 0.00 28 1016.1
20260503215527 64 336 0.0 4.0 0.00 0.00 0.00 28 1016.0
20260503215023 64 284 2.0 7.0 0.00 0.00 0.00 29 1015.9
20260503214522 65 267 1.0 6.0 0.00 0.00 0.00 27 1015.9
20260503214018 64 281 1.0 6.0 0.00 0.00 0.00 28 1016.0
20260503213516 65 243 0.0 1.0 0.00 0.00 0.00 27 1016.0
20260503213013 65 1 0.0 3.0 0.00 0.00 0.00 27 1015.9
20260503212511 65 317 0.0 0.0 0.00 0.00 0.00 28 1016.0
20260503212008 64 41 0.0 3.0 0.00 0.00 0.00 27 1015.8
20260503211505 65 285 2.0 9.0 0.00 0.00 0.00 28 1016.1
20260503211000 65 233 5.0 6.0 0.00 0.00 0.00 27 1016.0
20260503210457 65 23 0.0 4.0 0.00 0.00 0.00 29 1016.0
20260503205951 65 222 4.0 7.0 0.00 0.00 0.00 28 1016.0
20260503205448 65 250 4.0 7.0 0.00 0.00 0.00 27 1015.9
20260503204944 65 191 3.0 6.0 0.00 0.00 0.00 27 1016.0
20260503204442 64 354 3.0 6.0 0.00 0.00 0.00 27 1016.0
20260503203938 64 306 2.0 9.0 0.00 0.00 0.00 27 1016.0
20260503203436 65 313 2.0 6.0 0.00 0.00 0.00 26 1015.8
20260503202933 64 53 0.0 7.0 0.00 0.00 0.00 29 1016.3
20260503202432 65 167 5.0 10.0 0.00 0.00 0.00 27 1016.2
20260503201930 64 273 2.0 10.0 0.00 0.00 0.00 27 1016.2
20260503201427 64 308 2.0 7.0 0.00 0.00 0.00 28 1016.2
20260503200924 64 10 4.0 7.0 0.00 0.00 0.00 28 1016.2
20260503200420 65 269 7.0 10.0 0.00 0.00 0.00 27 1016.6
20260503195917 64 21 0.0 1.0 0.00 0.00 0.00 31 1016.4
20260503195414 64 269 3.0 4.0 0.00 0.00 0.00 29 1016.5
20260503194910 64 300 0.0 4.0 0.00 0.00 0.00 27 1016.9
20260503194407 63 37 2.0 7.0 0.00 0.00 0.00 27 1016.7
20260503193903 64 5 0.0 3.0 0.00 0.00 0.00 29 1016.8
20260503193359 64 240 0.0 2.0 0.00 0.00 0.00 27 1016.7
20260503192854 64 26 0.0 6.0 0.00 0.00 0.00 29 1016.8
20260503192350 64 323 5.0 7.0 0.00 0.00 0.00 27 1016.7
20260503191847 63 46 1.0 4.0 0.00 0.00 0.00 27 1017.0
20260503191344 64 268 4.0 7.0 0.00 0.00 0.00 27 1017.2
20260503190841 64 252 0.0 6.0 0.00 0.00 0.00 32 1017.1
20260503190338 63 352 0.0 0.0 0.00 0.00 0.00 30 1017.1
20260503185835 63 231 6.0 9.0 0.00 0.00 0.00 30 1017.2
20260503185332 64 16 1.0 2.0 0.00 0.00 0.00 29 1017.3
20260503184831 62 25 4.0 7.0 0.00 0.00 0.00 29 1017.1
20260503184327 62 293 1.0 6.0 0.00 0.00 0.00 31 1017.5
20260503183823 62 117 1.0 7.0 0.00 0.00 0.00 29 1017.5
20260503183321 61 80 2.0 6.0 0.00 0.00 0.00 29 1017.4
20260503182818 62 66 5.0 9.0 0.00 0.00 0.00 28 1017.6
20260503182317 62 212 1.0 3.0 0.00 0.00 0.00 28 1017.4
20260503181814 63 249 4.0 6.0 0.00 0.00 0.00 28 1017.6
20260503181311 62 354 1.0 7.0 0.00 0.00 0.00 27 1017.6
20260503180807 62 315 2.0 4.0 0.00 0.00 0.00 31 1017.6
20260503180305 61 8 3.0 9.0 0.00 0.00 0.00 30 1017.7
20260503175801 61 258 2.0 8.0 0.00 0.00 0.00 30 1017.9
20260503175300 61 252 0.0 11.0 0.00 0.00 0.00 32 1017.9
20260503174755 60 281 1.0 2.0 0.00 0.00 0.00 33 1017.9
20260503174253 60 51 2.0 7.0 0.00 0.00 0.00 33 1017.9
20260503173748 61 31 2.0 6.0 0.00 0.00 0.00 31 1018.1
20260503173244 60 283 4.0 8.0 0.00 0.00 0.00 33 1018.2
20260503172741 59 289 2.0 7.0 0.00 0.00 0.00 32 1018.0
20260503172238 60 271 4.0 4.0 0.00 0.00 0.00 32 1018.2
20260503171735 59 323 1.0 2.0 0.00 0.00 0.00 33 1018.2
20260503171232 59 295 3.0 7.0 0.00 0.00 0.00 33 1018.2
20260503170729 59 315 3.0 6.0 0.00 0.00 0.00 35 1018.2
20260503170226 58 275 3.0 8.0 0.00 0.00 0.00 35 1018.5
20260503160148 57 66 0.0 6.0 0.00 0.00 0.00 41 1019.0
20260503150618 55 249 2.0 4.0 0.00 0.00 0.00 41 1019.4
20260503150114 55 233 2.0 8.0 0.00 0.00 0.00 41 1019.5
20260503131007 50 333 2.0 4.0 0.00 0.00 0.00 51 1019.9
20260503130504 50 339 3.0 4.0 0.00 0.00 0.00 50 1019.8
20260503110355 36 267 0.0 0.0 0.00 0.00 0.00 84 1018.9
20260503090246 40 267 0.0 2.0 0.00 0.00 0.00 67 1017.6
20260503081208 40 248 0.0 0.0 0.00 0.00 0.00 75 1017.5
20260503080704 41 248 0.0 0.0 0.00 0.00 0.00 77 1017.4
20260503080201 41 248 0.0 0.0 0.00 0.00 0.00 75 1017.5
20260503072638 39 326 0.0 0.0 0.00 0.00 0.00 78 1017.1
20260503072135 39 326 0.0 0.0 0.00 0.00 0.00 81 1017.2
20260503071632 39 326 0.0 0.0 0.00 0.00 0.00 79 1017.1
20260503071128 39 326 0.0 0.0 0.00 0.00 0.00 80 1017.1
20260503070625 39 326 0.0 0.0 0.00 0.00 0.00 81 1017.0
20260503070124 39 326 0.0 0.0 0.00 0.00 0.00 80 1016.9
20260503055044 39 326 0.0 0.0 0.00 0.00 0.00 76 1017.1
20260503054540 39 326 0.0 0.0 0.00 0.00 0.00 76 1016.9
20260503054037 39 326 0.0 0.0 0.00 0.00 0.00 78 1017.1
20260503053535 39 326 0.0 0.0 0.00 0.00 0.00 77 1017.2
20260503053033 39 234 0.0 0.0 0.00 0.00 0.00 83 1017.1
20260503052529 39 234 0.0 0.0 0.00 0.00 0.00 79 1016.9
20260503052026 39 234 0.0 0.0 0.00 0.00 0.00 78 1017.1
20260503051521 39 234 0.0 0.0 0.00 0.00 0.00 77 1016.9
20260503051019 39 234 0.0 0.0 0.00 0.00 0.00 75 1017.1
20260503050514 40 234 0.0 0.0 0.00 0.00 0.00 76 1017.1
20260503050012 41 234 0.0 0.0 0.00 0.00 0.00 72 1017.1
20260503045509 41 234 0.0 0.0 0.00 0.00 0.00 71 1017.2
20260503045006 41 234 0.0 0.0 0.00 0.00 0.00 70 1017.3
20260503044503 41 234 0.0 0.0 0.00 0.00 0.00 71 1017.3
20260503044001 41 234 0.0 0.0 0.00 0.00 0.00 71 1017.2
20260503043456 41 234 0.0 0.0 0.00 0.00 0.00 70 1017.1
20260503042953 41 234 0.0 0.0 0.00 0.00 0.00 69 1017.1
20260503042450 42 234 0.0 0.0 0.00 0.00 0.00 68 1016.9
20260503041947 42 234 0.0 0.0 0.00 0.00 0.00 66 1017.0
20260503041443 43 234 0.0 0.0 0.00 0.00 0.00 65 1017.1
20260503040941 43 234 0.0 0.0 0.00 0.00 0.00 64 1017.0
20260503040438 43 234 0.0 0.0 0.00 0.00 0.00 64 1017.0
20260503035935 44 233 0.0 0.0 0.00 0.00 0.00 62 1017.1
20260503035432 44 344 0.0 0.0 0.00 0.00 0.00 63 1017.1
20260503034930 44 339 0.0 2.0 0.00 0.00 0.00 62 1017.2
20260503034427 44 297 0.0 0.0 0.00 0.00 0.00 63 1016.9
20260503033923 43 316 0.0 0.0 0.00 0.00 0.00 64 1016.7
20260503033421 44 316 0.0 0.0 0.00 0.00 0.00 65 1016.8
20260503032919 43 7 0.0 0.0 0.00 0.00 0.00 65 1016.9
20260503032417 44 7 0.0 0.0 0.00 0.00 0.00 66 1017.0
20260503031914 44 7 0.0 0.0 0.00 0.00 0.00 63 1017.0
20260503031412 44 7 0.0 0.0 0.00 0.00 0.00 64 1016.9
20260503030908 45 8 0.0 0.0 0.00 0.00 0.00 60 1017.1
20260503030405 45 8 0.0 0.0 0.00 0.00 0.00 59 1017.1
20260503025901 46 278 0.0 0.0 0.00 0.00 0.00 58 1017.1
20260503025359 46 190 0.0 1.0 0.00 0.00 0.00 56 1017.1
20260503024856 46 304 0.0 1.0 0.00 0.00 0.00 56 1017.0
20260503024353 46 324 0.0 4.0 0.00 0.00 0.00 57 1017.0
20260503023849 46 227 0.0 2.0 0.00 0.00 0.00 56 1017.2
20260503023346 47 269 0.0 0.0 0.00 0.00 0.00 58 1017.2
20260503022843 47 325 2.0 3.0 0.00 0.00 0.00 54 1017.1
20260503022338 47 135 0.0 2.0 0.00 0.00 0.00 55 1017.1
20260503021835 47 189 0.0 4.0 0.00 0.00 0.00 55 1017.2
20260503021331 48 241 0.0 2.0 0.00 0.00 0.00 55 1017.1
20260503020829 48 102 0.0 2.0 0.00 0.00 0.00 55 1017.0
20260503020327 48 144 1.0 2.0 0.00 0.00 0.00 57 1016.8
20260503015823 48 23 1.0 6.0 0.00 0.00 0.00 55 1016.7
20260503015320 48 246 1.0 1.0 0.00 0.00 0.00 56 1016.9
20260503014815 48 260 0.0 4.0 0.00 0.00 0.00 55 1016.6
20260503014313 48 47 2.0 3.0 0.00 0.00 0.00 55 1016.7
20260503013810 49 155 0.0 0.0 0.00 0.00 0.00 56 1016.5
20260503013308 49 155 0.0 2.0 0.00 0.00 0.00 54 1016.4
20260503012805 49 189 0.0 2.0 0.00 0.00 0.00 56 1016.6
20260503012305 49 1 0.0 2.0 0.00 0.00 0.00 53 1016.4
20260503011759 50 344 3.0 6.0 0.00 0.00 0.00 52 1016.1
20260503011256 50 335 0.0 1.0 0.00 0.00 0.00 53 1016.3
20260503010752 50 140 0.0 4.0 0.00 0.00 0.00 53 1016.3
20260503010249 50 218 0.0 2.0 0.00 0.00 0.00 53 1016.1
20260503005746 51 4 0.0 0.0 0.00 0.00 0.00 53 1016.2
20260503005244 51 0 0.0 0.0 0.00 0.00 0.00 50 1016.1
20260503004739 51 345 0.0 1.0 0.00 0.00 0.00 52 1016.0
20260503004238 51 219 0.0 0.0 0.00 0.00 0.00 51 1015.8
20260503003735 51 289 0.0 7.0 0.00 0.00 0.00 49 1015.9
20260503003232 51 140 0.0 1.0 0.00 0.00 0.00 48 1015.5
20260503002728 51 321 0.0 0.0 0.00 0.00 0.00 49 1015.6
20260503002225 52 163 0.0 0.0 0.00 0.00 0.00 50 1015.7
20260503001721 52 261 0.0 0.0 0.00 0.00 0.00 51 1015.5
20260503001218 52 52 0.0 0.0 0.00 0.00 0.00 51 1015.5
20260503000716 52 9 0.0 1.0 0.00 0.00 0.00 48 1015.5
20260503000213 52 344 0.0 1.0 0.00 0.00 0.00 50 1015.2
20260502235710 52 275 0.0 0.0 0.00 0.00 0.00 51 1015.5
20260502235208 52 278 0.0 0.0 0.00 0.00 0.00 49 1015.3
20260502234704 53 252 0.0 0.0 0.00 0.00 0.00 48 1015.2
20260502234201 53 250 0.0 1.0 0.00 0.00 0.00 47 1015.1
20260502233656 53 357 0.0 0.0 0.00 0.00 0.00 48 1015.1
20260502233154 53 226 0.0 1.0 0.00 0.00 0.00 47 1014.9
20260502232649 53 240 0.0 0.0 0.00 0.00 0.00 47 1015.0
20260502232147 54 347 0.0 1.0 0.00 0.00 0.00 48 1015.0
20260502231644 54 1 0.0 0.0 0.00 0.00 0.00 48 1015.0
20260502231141 54 274 2.0 3.0 0.00 0.00 0.00 46 1014.9
20260502230640 54 205 1.0 3.0 0.00 0.00 0.00 46 1014.6